Location: *
(57.8420°S, 159.8600°W)
Time: 03:34:34
(UTC+00:00)

Cosmos 2237 - Pass Details

Date: 18 May 2021
Orbit: 848 x 853 km, 70.8° (Epoch: 23 June)

Event Time Altitude Azimuth Distance (km) Brightness Sun altitude
Rises 03:24:09 0° 318° (NW) 3,426 8.8 -7.4°
Reaches altitude 10° 03:26:37 10° 316° (NW) 2,497 8.0 -7.7°
Maximum altitude 03:32:22 75° 230° (SW) 902 4.5 -8.4°
Drops below altitude 10° 03:38:11 10° 144° (SE) 2,522 6.2 -9.1°
Enters shadow 03:38:54 - 143° (SE) 2,789 6.4 -9.2°
